Home > Time Zones > World Clock > Weather > Japan > Kyoto > Past weeks

Flag for Japan Weather past 2 weeks in Kyoto, Japan

Now
48 °F

Fog.


Feels Like: 47 °F
Forecast: 38 / 51 °F
Wind: 3 mph from Southwest

Location: Osaka International Airport

Current Time: Jan 27, 2015 at 7:45:01 AM

Latest Report: Jan 27, 2015 at 7:00 AM


Visibility: 3 mi

Pressure: 29.92 "Hg

Humidity: 100%

Dew point: 48 °F

Location of KyotoLocation

Historic Weather in Kyoto — Graph

°F

Kyoto temperature yesterday

Maximum temperature yesterday: 52 °F (at 12:00 PM)
Minimum temperature yesterday: 39 °F (at 5:00 AM)
Average temperature yesterday: 47 °F

Past Weeks' High & Low Weather Summary

 TemperatureHumidityPressure
High52 °F (Jan 19, 2:00 PM)100% (Jan 15, 7:00 AM)30.51 "Hg (Jan 15, 7:00 AM)
Low32 °F (Jan 14, 5:00 AM)32% (Jan 21, 1:00 PM)29.68 "Hg (Jan 22, 4:00 PM)
Average44 °F67%30.15 "Hg
* Reported Jan 12 6:00 AM — Jan 27 6:00 AM, Kyoto, Weather by CustomWeather, © 2014

Note: Actual official high and low records may vary slightly from our data, if they occured in-between our weather recording intervals... More about our weather records

Advertising

Kyoto weather history for previous 24 hours

 ConditionsComfort  
Time TempWeatherWind HumidityBarometerVisibility
6:00 AM
Jan 27
48 °FFog.3 mph100%29.92 "Hg3 mi
5:00 AM48 °FSprinkles. Fog.3 mph100%29.92 "Hg3 mi
8:00 PM
Jan 26
48 °FSprinkles. Fog.5 mph94%29.98 "Hg3 mi
7:00 PM48 °FLight rain. Fog.6 mph94%30.01 "Hg3 mi
6:00 PM48 °FRain. Fog.6 mph94%30.01 "Hg3 mi
5:00 PM48 °FRain. Fog.8 mph94%30.01 "Hg3 mi
4:00 PM48 °FLight rain. Fog.5 mph87%30.04 "Hg3 mi
3:00 PM50 °FLight rain. Fog.3 mph82%30.04 "Hg4 mi
2:00 PM50 °FLight rain. Broken clouds.6 mph76%30.04 "HgN/A
1:00 PM52 °FLight rain. Broken clouds.9 mph62%30.07 "HgN/A
12:00 PM52 °FPartly sunny.8 mph58%30.12 "HgN/A
11:00 AM50 °FLight rain. Broken clouds.8 mph62%30.15 "HgN/A
10:00 AM48 °FLight rain. More clouds than sun.7 mph62%30.21 "HgN/A
9:00 AM46 °FPartly sunny.1 mph71%30.21 "HgN/A
8:00 AM45 °FBroken clouds.6 mph71%30.24 "HgN/A
7:00 AM39 °FPartly cloudy.3 mph81%30.24 "HgN/A
Weather by CustomWeather, © 2014

See weather overviewHow to use our weather pages